Regional Weather Roundup
Issued by NWS Kansas City/Pleasant Hill, MO

Home | Current Version | Previous Version | Text Only | Print | Product List | Glossary On
Versions: 1 2 3 4 5 6 7 8 9 10 11 12 13 14 15 16 17 18 19 20 21 22 23 24 25 26 27 28 29 30 31 32 33 34 35 36 37 38 39 40 41 42 43 44 45 46 47 48 49 50
000
ASUS43 KEAX 211911
RWREAX

WEATHER ROUNDUP FOR EASTERN KANSAS AND NORTHWEST MISSOURI
NATIONAL WEATHER SERVICE KANSAS CITY/PLEASANT HILL MO
100 PM CST SUN DEC 21 2014

KSZ040-057-103>105-MOZ028-029-037-043-212000-
...KANSAS CITY METROPOLITAN AREA...

CITY           SKY/WX    TMP DP  RH WIND       PRES   REMARKS
K.C. INTL      CLOUDY    43  39  86 S17       29.88F
K.C. DOWNTOWN  CLOUDY    45  39  79 S10       29.90F
LEES SUMMIT    CLOUDY    45  39  79 S14       29.91F
OLATHE - IXD   CLOUDY    43  40  89 S16       29.90F
OLATHE - OJC   CLOUDY    44  40  85 S13       29.88F
LAWRENCE       CLOUDY    43  38  82 S13G21    29.89F

$$

MOZ001>008-011>017-020>025-030>033-038>040-044>046-053-054-212000-
...NORTHERN AND CENTRAL MISSOURI...

CITY           SKY/WX    TMP DP  RH WIND       PRES   REMARKS
ST. JOSEPH     CLOUDY    43  38  82 S15       29.88F
MOSBY          CLOUDY    43  37  81 S12       29.91F
WARRENSBURG    DRIZZLE   43  41  93 S7        29.95F
WHITEMAN AFB   CLOUDY    44  40  88 S12       29.95F
CLINTON        CLOUDY    45  43  93 S10       29.97F FOG
SEDALIA        CLOUDY    44  40  85 S12       29.97F
WARSAW         NOT AVBL
MARSHALL       CLOUDY    46  43  87 S10       29.98F
CHILLICOTHE      N/A     45  39  79 S12G20    29.94F
MOBERLY        CLOUDY    45  36  70 S12       29.98
KIRKSVILLE     CLOUDY    43  39  86 S13       29.96F

$$

MOZ041-047>049-056>058-063>065-088>090-097-212000-
...EASTERN AND SOUTHERN MISSOURI...

CITY           SKY/WX    TMP DP  RH WIND       PRES   REMARKS
ST. LOUIS INTL CLOUDY    44  32  62 SE14      30.10F
SPIRIT OF STL  CLOUDY    44  34  67 S8G17     30.06F
COLUMBIA       CLOUDY    45  38  76 SE17      30.00F
JEFFERSON CITY CLOUDY    45  37  73 S14       30.02F
HANNIBAL       CLOUDY    46  34  61 S10G20    30.00F
ROLLA          CLOUDY    40  36  86 S9        30.02F WCI  34
OSAGE BEACH    CLOUDY    43  37  81 S14       30.01F
SPRINGFIELD    CLOUDY    42  37  82 SE13      29.97F
BRANSON        CLOUDY    41  36  81 SE6       30.02F
JOPLIN         CLOUDY    47  40  76 S15       29.94F
WEST PLAINS    CLOUDY    40  34  79 SE8       30.05F WCI  34

$$

IAZ060-094-KSZ022-034>040-054-083-096-NEZ052-066-093-212000-
...KANSAS...SOUTHEAST NEBRASKA AND IOWA...

CITY           SKY/WX    TMP DP  RH WIND       PRES   REMARKS
TOPEKA         CLOUDY   N/A N/A N/A S10       29.88F
MANHATTAN      CLOUDY    44  39  82 S13       29.82F
EMPORIA        CLOUDY    42  40  92 S15       29.86F WCI  34
CHANUTE        CLOUDY    45  42  89 S12       29.91F FOG
WICHITA        DRIZZLE   44  41  89 S15       29.82F FOG
OMAHA          CLOUDY    42  38  85 S21       29.78F WCI  33
LINCOLN        CLOUDY    42  38  85 S17G28    29.76F WCI  34
FALLS CITY     CLOUDY    42  38  85 S16G22    29.84F WCI  34
LAMONI         CLOUDY    39  38  96 S13       29.89F FOG     WCI  31
DES MOINES     CLOUDY    41  35  79 S15G30    29.87F WCI  33

$$




USA.gov is the U.S. government's official web portal to all federal, state and local government web resources and services.